Regional Weather Roundup
Issued by NWS

Home | Current Version | Previous Version | Graphics & Text | Print | Product List | Glossary On
Versions: 1 2 3 4 5 6 7 8 9 10 11 12 13 14 15 16 17 18 19 20 21 22 23 24 25 26 27 28 29 30 31 32 33 34 35 36 37 38 39 40 41 42 43 44 45 46 47 48 49 50
000
ASUS43 KFSD 042202
RWRSD

WEATHER ROUNDUP FOR SOUTH DAKOTA
NATIONAL WEATHER SERVICE SIOUX FALLS SD
500 PM CDT FRI SEP 04 2015

NOTE: "FAIR" INDICATES FEW OR NO CLOUDS BELOW 12,000 FEET WITH NO
SIGNIFICANT WEATHER AND/OR OBSTRUCTIONS TO VISIBILITY.


SDZ001>005-009-010-012>017-042300-
NORTHWEST AND NORTH CENTRAL SOUTH DAKOTA

CITY           SKY/WX    TMP DP  RH WIND       PRES   REMARKS
BUFFALO          N/A     87  57  35 VRB5      29.74F
FAITH            N/A     91  51  25 E7        29.77F
MOBRIDGE       SUNNY     91  65  41 E8        29.73S
$$

SDZ012>016-024>037-041>051-057-063-072>074-042300-
SOUTHWEST AND SOUTH CENTRAL SOUTH DAKOTA

CITY           SKY/WX    TMP DP  RH WIND       PRES   REMARKS
RAPID CTY ARPT SUNNY     90  57  32 N7        29.79F
PIERRE         SUNNY     91  66  43 SE10      29.71F
CUSTER         SUNNY     85  37  18 VRB5      29.96S
PHILIP         SUNNY     92  61  35 E6        29.74F
PINE RIDGE     PTSUNNY   92  46  20 W3        29.81S
WINNER         FAIR      93  60  33 S8        29.75F
$$

SDZ004>011-016>023-039-040-042300-
NORTHEAST SOUTH DAKOTA

CITY           SKY/WX    TMP DP  RH WIND       PRES   REMARKS
ABERDEEN       MOSUNNY   87  69  54 SE13      29.77S
WATERTOWN      PTSUNNY   83  67  58 SE17G23   29.83F
BROOKINGS      MOSUNNY   81  66  61 SE17G25   29.85F
$$

SDZ017-020-022-023-036>040-048>070-042300-
SOUTHEAST SOUTH DAKOTA

CITY           SKY/WX    TMP DP  RH WIND       PRES   REMARKS
SIOUX FALLS    PTSUNNY   80  71  74 SE16      29.84F
HURON          SUNNY     88  70  55 SE15G22   29.74S
MITCHELL       SUNNY     89  72  56 SE17G24   29.76S HX  96
YANKTON        SUNNY     88  73  62 SE17G24   29.77S HX  96
$$

ABBREVIATIONS USED IN REMARKS
   TC - TEMPERATURE IN CELSIUS
  WCI - WIND CHILL INDEX
   HX - HEAT INDEX
  VSB - VISIBILITY



USA.gov is the U.S. government's official web portal to all federal, state and local government web resources and services.